Voltar ao catálogo

STARLINK-37739

AtivoComunicaçõesSSO
NORAD 69233·PAYLOAD·🇺🇸 United States

Lançado May 26, 2026 de Vandenberg Space Force Base

Loading…

Próximas Passagens (próximas 24 horas)

TLE

AtualizadoSource: CelesTrak SupGP

Época: Sep 15, 2026, 04:28 UTC

1 69233C 26115Y   26258.18659722 -.00058686  00000+0 -18220-2 0  2588
2 69233  97.2832 274.4133 0001443  93.6796 129.7470 15.33463807    13

Acompanhe STARLINK-37739 em tempo real com AllMySat

Download on the App Store